Weather History for KPNT - June, 2013

Change the Weather History Date:

Thursday, June 13, 2013

  Actual Average Record
Temperature  
Mean Temperature 73 °F -  
Max Temperature 82 °F 83 °F 96 °F (1920)
Min Temperature 64 °F 61 °F 46 °F (1903)
Cooling Degree Days 8    
Growing Degree Days 23 (Base 50)    
Moisture  
Dew Point 59 °F    
Average Humidity 65    
Maximum Humidity 94    
Minimum Humidity 34    
Precipitation  
Precipitation 0.15 in - - ()
Sea Level Pressure  
Sea Level Pressure 29.90 in    
Wind  
Wind Speed 11 mph (NNE)    
Max Wind Speed 20 mph    
Max Gust Speed 26 mph    
Visibility 10 miles    
Events Rain    
Averages and records for this station are not official NWS values.
T = Trace of Precipitation, MM = Missing Value Source: NWS Daily Summary

Daily Weather History Graph

Daily Weather History Graph

Search for Another Location

Airport or City:

Trip Planner

Search our weather history database for the weather conditions in past years. The results will help you decide how hot, cold, wet, or windy it might be!

Date:

Astronomy

Jun. 13, 2013 Rise Set
Actual Time 5:22 AM CDT 8:27 PM CDT
Civil Twilight 4:48 AM CDT 9:00 PM CDT
Nautical Twilight 4:05 AM CDT 9:43 PM CDT
Astronomical Twilight 3:15 AM CDT 10:34 PM CDT
Moon 10:00 AM CDT (6/13) 11:31 PM CDT (6/13)
Length of Visible Light 16h 12m
Length of Day
15h 05m
Waxing Crescent, 22% of the Moon is Illuminated
Jun 13
Waxing Crescent
Jun 16
First Quarter
Jun 23
Full
Jun 29
Last Quarter
Jul 8
New

Hourly Weather History & Observations

Time (CDT) Temp. Heat Index Dew Point Humidity Pressure Visibility Wind Dir Wind Speed Gust Speed Precip Events Conditions
12:35 AM 71.6 °F - 68.0 °F 88% 29.68 in 10.0 mi NE 12.7 mph - N/A   Scattered Clouds
12:55 AM 69.8 °F - 66.2 °F 88% 29.68 in 7.0 mi ENE 8.1 mph - N/A   Scattered Clouds
1:15 AM 69.8 °F - 66.2 °F 88% 29.67 in 7.0 mi East 3.5 mph - N/A   Scattered Clouds
1:35 AM 69.8 °F - 66.2 °F 88% 29.67 in 7.0 mi Calm Calm - N/A   Scattered Clouds
1:55 AM 69.8 °F - 66.2 °F 88% 29.67 in 7.0 mi Calm Calm - N/A   Clear
2:15 AM 69.8 °F - 68.0 °F 94% 29.68 in 7.0 mi Calm Calm - N/A   Mostly Cloudy
2:35 AM 69.8 °F - 66.2 °F 88% 29.68 in 10.0 mi SW 4.6 mph - N/A   Mostly Cloudy
2:55 AM 69.8 °F - 68.0 °F 94% 29.69 in 7.0 mi West 5.8 mph - N/A   Overcast
3:15 AM 69.8 °F - 66.2 °F 88% 29.72 in 4.0 mi NNW 10.4 mph - 0.08 in Rain Heavy Rain
3:35 AM 69.8 °F - 66.2 °F 88% 29.71 in 7.0 mi North 10.4 mph - 0.15 in Rain Rain
3:55 AM 68.0 °F - 66.2 °F 94% 29.72 in 10.0 mi NNE 15.0 mph - 0.15 in Rain Light Rain
4:15 AM 66.2 °F - 64.4 °F 94% 29.73 in 10.0 mi North 12.7 mph 19.6 mph N/A   Mostly Cloudy
4:35 AM 66.2 °F - 64.4 °F 94% 29.76 in 10.0 mi North 10.4 mph - N/A   Mostly Cloudy
4:55 AM 66.2 °F - 64.4 °F 94% 29.77 in 10.0 mi North 10.4 mph - N/A   Overcast
5:15 AM 66.2 °F - 64.4 °F 94% 29.78 in 10.0 mi North 13.8 mph 21.9 mph N/A   Overcast
5:35 AM 66.2 °F - 64.4 °F 94% 29.78 in 10.0 mi North 16.1 mph 20.7 mph N/A   Overcast
5:55 AM 66.2 °F - 64.4 °F 94% 29.79 in 10.0 mi North 16.1 mph - N/A   Overcast
6:15 AM 66.2 °F - 64.4 °F 94% 29.80 in 10.0 mi North 13.8 mph - N/A   Overcast
6:35 AM 68.0 °F - 64.4 °F 88% 29.81 in 10.0 mi North 13.8 mph - N/A   Scattered Clouds
6:55 AM 68.0 °F - 64.4 °F 88% 29.83 in 10.0 mi NNW 15.0 mph - N/A   Clear
7:15 AM 68.0 °F - 60.8 °F 78% 29.85 in 10.0 mi North 18.4 mph 21.9 mph N/A   Mostly Cloudy
7:35 AM 68.0 °F - 62.6 °F 83% 29.86 in 10.0 mi North 13.8 mph 21.9 mph N/A   Mostly Cloudy
7:55 AM 68.0 °F - 60.8 °F 78% 29.87 in 10.0 mi North 19.6 mph - N/A   Mostly Cloudy
8:15 AM 68.0 °F - 59.0 °F 73% 29.88 in 10.0 mi North 17.3 mph - N/A   Mostly Cloudy
8:35 AM 69.8 °F - 59.0 °F 68% 29.89 in 10.0 mi North 17.3 mph 20.7 mph N/A   Mostly Cloudy
8:55 AM 69.8 °F - 60.8 °F 73% 29.89 in 10.0 mi NNE 16.1 mph 20.7 mph N/A   Scattered Clouds
9:15 AM 71.6 °F - 60.8 °F 69% 29.91 in 10.0 mi North 15.0 mph - N/A   Clear
9:35 AM 71.6 °F - 60.8 °F 69% 29.90 in 10.0 mi North 15.0 mph 19.6 mph N/A   Clear
9:55 AM 71.6 °F - 62.6 °F 73% 29.91 in 10.0 mi NNE 13.8 mph 18.4 mph N/A   Clear
10:15 AM 73.4 °F - 62.6 °F 69% 29.93 in 10.0 mi NNE 12.7 mph - N/A   Clear
10:35 AM 73.4 °F - 60.8 °F 65% 29.94 in 10.0 mi NNE 13.8 mph - N/A   Clear
10:55 AM 75.2 °F - 60.8 °F 61% 29.95 in 10.0 mi NNE 12.7 mph - N/A   Clear
11:15 AM 75.2 °F - 62.6 °F 65% 29.95 in 10.0 mi North 13.8 mph 18.4 mph N/A   Clear
11:35 AM 75.2 °F - 60.8 °F 61% 29.96 in 10.0 mi North 15.0 mph 20.7 mph N/A   Clear
11:55 AM 78.8 °F - 57.2 °F 47% 29.96 in 10.0 mi North 16.1 mph 19.6 mph N/A   Clear
12:15 PM 78.8 °F - 55.4 °F 44% 29.96 in 10.0 mi North 12.7 mph 18.4 mph N/A   Clear
12:35 PM 78.8 °F - 53.6 °F 42% 29.96 in 10.0 mi North 18.4 mph 21.9 mph N/A   Clear
12:55 PM 78.8 °F - 53.6 °F 42% 29.97 in 10.0 mi North 12.7 mph 16.1 mph N/A   Clear
1:15 PM 78.8 °F - 53.6 °F 42% 29.97 in 10.0 mi North 13.8 mph 19.6 mph N/A   Clear
1:35 PM 80.6 °F 80.3 °F 53.6 °F 39% 29.97 in 10.0 mi NNE 12.7 mph 16.1 mph N/A   Clear
1:55 PM 80.6 °F - 51.8 °F 37% 29.98 in 10.0 mi North 12.7 mph - N/A   Clear
2:15 PM 80.6 °F 80.3 °F 53.6 °F 39% 29.98 in 10.0 mi North 13.8 mph 20.7 mph N/A   Clear
2:35 PM 80.6 °F 80.3 °F 53.6 °F 39% 29.98 in 10.0 mi North 15.0 mph 23.0 mph N/A   Scattered Clouds
2:55 PM 80.6 °F 80.3 °F 53.6 °F 39% 29.98 in 10.0 mi North 11.5 mph 21.9 mph N/A   Scattered Clouds
3:15 PM 80.6 °F 80.3 °F 53.6 °F 39% 29.98 in 10.0 mi North 15.0 mph 26.5 mph N/A   Scattered Clouds
3:35 PM 80.6 °F - 51.8 °F 37% 29.98 in 10.0 mi North 13.8 mph 21.9 mph N/A   Scattered Clouds
3:55 PM 80.6 °F - 51.8 °F 37% 29.98 in 10.0 mi NNW 11.5 mph 18.4 mph N/A   Scattered Clouds
4:15 PM 82.4 °F - 51.8 °F 35% 29.98 in 10.0 mi North 15.0 mph 20.7 mph N/A   Scattered Clouds
4:35 PM 82.4 °F 81.4 °F 53.6 °F 37% 29.97 in 10.0 mi NNW 13.8 mph 23.0 mph N/A   Scattered Clouds
4:55 PM 80.6 °F - 51.8 °F 37% 29.97 in 10.0 mi NNW 11.5 mph 17.3 mph N/A   Clear
5:15 PM 80.6 °F - 51.8 °F 37% 29.97 in 10.0 mi NNW 9.2 mph 20.7 mph N/A   Clear
5:35 PM 80.6 °F 80.3 °F 53.6 °F 39% 29.97 in 10.0 mi NNW 10.4 mph 16.1 mph N/A   Scattered Clouds
5:55 PM 82.4 °F 81.4 °F 53.6 °F 37% 29.97 in 10.0 mi NNW 12.7 mph 18.4 mph N/A   Scattered Clouds
6:15 PM 82.4 °F - 51.8 °F 35% 29.97 in 10.0 mi NNW 15.0 mph - N/A   Scattered Clouds
6:35 PM 80.6 °F - 51.8 °F 37% 29.97 in 10.0 mi NNW 15.0 mph - N/A   Scattered Clouds
6:55 PM 80.6 °F - 50.0 °F 34% 29.98 in 10.0 mi North 12.7 mph - N/A   Clear
7:15 PM 80.6 °F - 51.8 °F 37% 29.99 in 10.0 mi NNW 9.2 mph - N/A   Clear
7:35 PM 77.0 °F - 57.2 °F 50% 30.00 in 10.0 mi East 12.7 mph - N/A   Scattered Clouds
7:55 PM 75.2 °F - 57.2 °F 53% 30.01 in 10.0 mi East 8.1 mph - N/A   Scattered Clouds
8:15 PM 73.4 °F - 57.2 °F 57% 30.01 in 10.0 mi East 8.1 mph - N/A   Clear
8:35 PM 71.6 °F - 57.2 °F 60% 30.01 in 10.0 mi East 5.8 mph - N/A   Clear
8:55 PM 71.6 °F - 57.2 °F 60% 30.02 in 10.0 mi East 5.8 mph - N/A   Clear
9:15 PM 69.8 °F - 57.2 °F 64% 30.02 in 10.0 mi East 8.1 mph - N/A   Clear
9:35 PM 68.0 °F - 57.2 °F 68% 30.03 in 10.0 mi East 9.2 mph - N/A   Clear
9:55 PM 68.0 °F - 57.2 °F 68% 30.03 in 10.0 mi East 10.4 mph - N/A   Clear
10:15 PM 66.2 °F - 55.4 °F 68% 30.03 in 10.0 mi East 11.5 mph - N/A   Clear
10:35 PM 66.2 °F - 55.4 °F 68% 30.03 in 10.0 mi East 9.2 mph - N/A   Clear
10:55 PM 64.4 °F - 55.4 °F 73% 30.04 in 10.0 mi East 8.1 mph - N/A   Clear
11:15 PM 64.4 °F - 55.4 °F 73% 30.03 in 10.0 mi East 6.9 mph - N/A   Clear
11:35 PM 64.4 °F - 53.6 °F 68% 30.03 in 10.0 mi ENE 9.2 mph - N/A   Clear
11:55 PM 64.4 °F - 53.6 °F 68% 30.03 in 10.0 mi ENE 5.8 mph - N/A   Clear